This is the latest recevied weather packets stored in our database for station/object LA5PPA-1. If no packets are shown the sender has not sent any weather packets the latest 10 day(s).
| Time | Temp. | Humidity | Pressure | Rain* | Wind** | Luminosity | Snow |
|---|---|---|---|---|---|---|---|
| 1778247109 | 10° C | 42% | 1024.3 hPa | 0 mm | - | - | - |
| 1778246809 | 9.44° C | 42% | 1024.3 hPa | 0 mm | - | - | - |
| 1778246509 | 9.44° C | 41% | 1024.5 hPa | 0 mm | - | - | - |
| 1778246209 | 10° C | 42% | 1024.3 hPa | 0 mm | - | - | - |
| 1778245909 | 9.44° C | 44% | 1024.5 hPa | 0 mm | - | - | - |
| 1778245609 | 10° C | 41% | 1024.3 hPa | 0 mm | - | - | - |
| 1778245309 | 10° C | 40% | 1024.3 hPa | 0 mm | - | - | - |
| 1778245009 | 10° C | 40% | 1024.5 hPa | 0 mm | - | - | - |
| 1778244709 | 10° C | 42% | 1024.3 hPa | 0 mm | - | - | - |
| 1778244409 | 10° C | 42% | 1024.3 hPa | 0 mm | - | - | - |
| 1778244109 | 10° C | 43% | 1024.3 hPa | 0 mm | - | - | - |
| 1778243809 | 9.44° C | 41% | 1024.2 hPa | 0 mm | - | - | - |
| 1778243509 | 10° C | 41% | 1024.1 hPa | 0 mm | - | - | - |
| 1778243209 | 9.44° C | 41% | 1024.1 hPa | 0 mm | - | - | - |
| 1778242909 | 9.44° C | 42% | 1024.1 hPa | 0 mm | - | - | - |
| 1778242609 | 9.44° C | 41% | 1024.2 hPa | 0 mm | - | - | - |
| 1778242309 | 10° C | 41% | 1024.1 hPa | 0 mm | - | - | - |
| 1778242009 | 10° C | 41% | 1024.2 hPa | 0 mm | - | - | - |
| 1778241709 | 10° C | 40% | 1024.2 hPa | 0 mm | - | - | - |
| 1778241409 | 9.44° C | 41% | 1024.1 hPa | 0 mm | - | - | - |
| 1778241109 | 9.44° C | 42% | 1024.1 hPa | 0 mm | - | - | - |
| 1778240809 | 9.44° C | 43% | 1024.1 hPa | 0 mm | - | - | - |
| 1778240509 | 8.89° C | 43% | 1024.1 hPa | 0 mm | - | - | - |
| 1778240209 | 8.89° C | 42% | 1024.1 hPa | 0 mm | - | - | - |
| 1778239909 | 8.89° C | 43% | 1024.2 hPa | 0 mm | - | - | - |
* Rain latest hour (hover to see other rain measurements)
** Current wind speed in m/s (hover to see current wind gust speed)